Beatrice, NE

4:38 PM CST on November 19, 2017 (GMT -0600)
Beatrice Municipal

Weather History for KBIE - July, 2013

Change the Weather History Date:

Friday, July 26, 2013

  Actual Average Record
Temperature  
Mean Temperature 70 °F -  
Max Temperature 82 °F 89 °F 107 °F (1956)
Min Temperature 58 °F 65 °F 48 °F (2004)
Cooling Degree Days 6    
Growing Degree Days 20 (Base 50)    
Moisture  
Dew Point 60 °F    
Average Humidity 70    
Maximum Humidity 100    
Minimum Humidity 32    
Precipitation  
Precipitation 0.00 in - - ()
Sea Level Pressure  
Sea Level Pressure 30.08 in    
Wind  
Wind Speed 6 mph (North)    
Max Wind Speed 18 mph    
Max Gust Speed 24 mph    
Visibility 9 miles    
Events      
Averages and records for this station are not official NWS values.
T = Trace of Precipitation, MM = Missing Value Source: NWS Daily Summary

Daily Weather History Graph

Daily Weather History Graph

Search for Another Location

Airport or City:

Trip Planner

Search our weather history database for the weather conditions in past years. The results will help you decide how hot, cold, wet, or windy it might be!

Date:

Astronomy

Jul. 26, 2013 Rise Set
Actual Time 6:19 AM CDT 8:47 PM CDT
Civil Twilight 5:48 AM CDT 9:18 PM CDT
Nautical Twilight 5:09 AM CDT 9:56 PM CDT
Astronomical Twilight 4:26 AM CDT 10:39 PM CDT
Moon 11:01 PM CDT (7/26) 10:57 AM CDT (7/26)
Length of Visible Light 15h 29m
Length of Day
14h 27m
Waning Gibbous, 80% of the Moon is Illuminated
Jul 26
Waning Gibbous
Jul 29
Last Quarter
Aug 6
New
Aug 14
First Quarter
Aug 20
Full

Hourly Weather History & Observations

Time (CDT) Temp. Heat Index Dew Point Humidity Pressure Visibility Wind Dir Wind Speed Gust Speed Precip Events Conditions
12:15 AM 71.2 °F - 70.9 °F 99% 30.02 in 10.0 mi Calm Calm - N/A   Scattered Clouds
12:35 AM 70.7 °F - 70.5 °F 99% 30.02 in 7.0 mi Calm Calm - N/A   Clear
12:55 AM 69.3 °F - 69.3 °F 100% 30.03 in 7.0 mi West 3.5 mph - N/A   Scattered Clouds
1:15 AM 70.7 °F - 70.7 °F 100% 30.02 in 10.0 mi SW 5.8 mph - N/A   Mostly Cloudy
1:35 AM 71.1 °F - 70.3 °F 98% 30.03 in 10.0 mi West 3.5 mph - N/A   Mostly Cloudy
1:55 AM 70.9 °F - 70.0 °F 97% 30.02 in 10.0 mi SW 3.5 mph - N/A   Mostly Cloudy
2:15 AM 70.0 °F - 68.9 °F 96% 30.02 in 10.0 mi SW 4.6 mph - N/A   Mostly Cloudy
2:35 AM 69.6 °F - 68.4 °F 96% 30.01 in 10.0 mi SW 3.5 mph - N/A   Scattered Clouds
2:55 AM 68.5 °F - 68.0 °F 98% 30.00 in 10.0 mi SW 4.6 mph - N/A   Clear
3:15 AM 67.6 °F - 67.3 °F 99% 30.01 in 10.0 mi South 4.6 mph - N/A   Clear
3:35 AM 67.1 °F - 66.7 °F 99% 30.01 in 10.0 mi Calm Calm - N/A   Scattered Clouds
3:55 AM 66.2 °F - 65.8 °F 99% 30.00 in 10.0 mi West 3.5 mph - N/A   Scattered Clouds
4:15 AM 66.2 °F - 66.2 °F 100% 30.00 in 10.0 mi West 3.5 mph - N/A   Clear
4:35 AM 65.7 °F - 65.7 °F 100% 30.00 in 7.0 mi WNW 4.6 mph - N/A   Clear
4:55 AM 66.2 °F - 66.2 °F 100% 30.00 in 7.0 mi WNW 3.5 mph - N/A   Clear
5:15 AM 65.3 °F - 65.3 °F 100% 30.01 in 7.0 mi Calm Calm - N/A   Clear
5:35 AM 65.7 °F - 65.7 °F 100% 30.02 in 7.0 mi Calm Calm - N/A   Clear
5:55 AM 65.5 °F - 65.5 °F 100% 30.02 in 5.0 mi Calm Calm - N/A   Clear
6:15 AM 64.6 °F - 64.6 °F 100% 30.03 in 2.0 mi Calm Calm - N/A   Clear
6:35 AM 63.7 °F - 63.7 °F 100% 30.04 in 4.0 mi Calm Calm - N/A   Clear
6:55 AM 64.2 °F - 64.2 °F 100% 30.05 in 2.5 mi Calm Calm - N/A   Clear
7:15 AM 64.9 °F - 64.9 °F 100% 30.05 in 2.5 mi Calm Calm - N/A   Clear
7:35 AM 67.1 °F - 67.1 °F 100% 30.06 in 3.0 mi Calm Calm - N/A   Clear
7:55 AM 68.7 °F - 68.4 °F 99% 30.06 in 4.0 mi Calm Calm - N/A   Clear
8:15 AM 70.7 °F - 68.7 °F 93% 30.07 in 7.0 mi North 8.1 mph - N/A   Clear
8:35 AM 71.6 °F - 69.1 °F 92% 30.07 in 7.0 mi North 8.1 mph - N/A   Clear
8:55 AM 72.7 °F - 68.9 °F 88% 30.08 in 10.0 mi North 11.5 mph - N/A   Clear
9:15 AM 73.6 °F - 68.5 °F 84% 30.08 in 10.0 mi North 12.7 mph - N/A   Clear
9:35 AM 74.7 °F - 68.7 °F 82% 30.09 in 10.0 mi North 11.5 mph - N/A   Clear
9:55 AM 76.3 °F - 68.0 °F 75% 30.10 in 10.0 mi North 12.7 mph - N/A   Clear
10:15 AM 76.8 °F - 68.2 °F 75% 30.10 in 10.0 mi North 13.8 mph - N/A   Clear
10:35 AM 78.1 °F - 68.0 °F 71% 30.11 in 10.0 mi NNE 13.8 mph 19.6 mph N/A   Clear
10:55 AM 78.1 °F - 64.4 °F 63% 30.12 in 10.0 mi NNE 13.8 mph 20.7 mph N/A   Clear
11:15 AM 78.4 °F - 61.0 °F 55% 30.12 in 10.0 mi NNE 15.0 mph - N/A   Clear
11:35 AM 78.8 °F - 60.1 °F 53% 30.12 in 10.0 mi North 15.0 mph 21.9 mph N/A   Clear
11:55 AM 78.4 °F - 56.5 °F 47% 30.13 in 10.0 mi NNE 15.0 mph 20.7 mph N/A   Clear
12:15 PM 79.3 °F - 56.1 °F 45% 30.13 in 10.0 mi North 12.7 mph 19.6 mph N/A   Clear
12:35 PM 79.9 °F - 56.3 °F 44% 30.12 in 10.0 mi North 15.0 mph - N/A   Clear
12:55 PM 80.1 °F 80.3 °F 56.5 °F 44% 30.13 in 10.0 mi North 16.1 mph 23.0 mph N/A   Clear
1:15 PM 80.6 °F 80.7 °F 56.7 °F 44% 30.12 in 10.0 mi North 15.0 mph - N/A   Clear
1:35 PM 80.6 °F 80.7 °F 56.7 °F 44% 30.11 in 10.0 mi North 13.8 mph 21.9 mph N/A   Clear
1:55 PM 81.3 °F 81.2 °F 56.7 °F 43% 30.11 in 10.0 mi North 15.0 mph 21.9 mph N/A   Clear
2:15 PM 82.4 °F 81.8 °F 55.6 °F 40% 30.11 in 10.0 mi North 16.1 mph 24.2 mph N/A   Clear
2:35 PM 82.2 °F 81.5 °F 55.2 °F 39% 30.10 in 10.0 mi North 13.8 mph 20.7 mph N/A   Clear
2:55 PM 82.4 °F 81.7 °F 55.2 °F 39% 30.10 in 10.0 mi NNW 18.4 mph 21.9 mph N/A   Clear
3:15 PM 82.2 °F 81.3 °F 53.6 °F 37% 30.09 in 10.0 mi North 12.7 mph 23.0 mph N/A   Clear
3:35 PM 82.4 °F 81.4 °F 54.0 °F 37% 30.09 in 10.0 mi North 15.0 mph 20.7 mph N/A   Clear
3:55 PM 82.8 °F - 50.9 °F 33% 30.10 in 10.0 mi North 13.8 mph 23.0 mph N/A   Clear
4:15 PM 82.6 °F - 50.4 °F 33% 30.10 in 10.0 mi NNW 15.0 mph - N/A   Clear
4:35 PM 81.3 °F - 50.0 °F 33% 30.10 in 10.0 mi North 15.0 mph 21.9 mph N/A   Clear
4:55 PM 82.0 °F - 49.8 °F 32% 30.09 in 10.0 mi North 15.0 mph 20.7 mph N/A   Clear
5:15 PM 81.0 °F - 49.3 °F 33% 30.09 in 10.0 mi North 13.8 mph 20.7 mph N/A   Clear
5:35 PM 81.1 °F - 48.6 °F 32% 30.10 in 10.0 mi NNW 16.1 mph 21.9 mph N/A   Clear
5:55 PM 80.6 °F - 49.5 °F 34% 30.10 in 10.0 mi North 13.8 mph - N/A   Clear
6:15 PM 79.9 °F - 50.5 °F 36% 30.10 in 10.0 mi North 11.5 mph 19.6 mph N/A   Clear
6:35 PM 79.0 °F - 51.8 °F 39% 30.10 in 10.0 mi North 13.8 mph - N/A   Clear
6:55 PM 78.1 °F - 51.4 °F 39% 30.10 in 10.0 mi NNE 12.7 mph 17.3 mph N/A   Clear
7:15 PM 77.0 °F - 51.1 °F 40% 30.10 in 10.0 mi NNE 10.4 mph - N/A   Clear
7:35 PM 75.6 °F - 50.9 °F 42% 30.10 in 10.0 mi North 12.7 mph - N/A   Clear
7:55 PM 74.3 °F - 52.5 °F 46% 30.10 in 10.0 mi North 12.7 mph 16.1 mph N/A   Clear
8:15 PM 72.5 °F - 53.1 °F 50% 30.11 in 10.0 mi North 10.4 mph - N/A   Clear
8:35 PM 70.3 °F - 52.3 °F 53% 30.11 in 10.0 mi North 8.1 mph - N/A   Clear
8:55 PM 68.7 °F - 53.1 °F 57% 30.12 in 10.0 mi NNE 5.8 mph - N/A   Clear
9:15 PM 67.3 °F - 53.4 °F 61% 30.12 in 10.0 mi NNE 9.2 mph - N/A   Clear
9:35 PM 65.1 °F - 54.0 °F 67% 30.12 in 10.0 mi NE 4.6 mph - N/A   Clear
9:55 PM 63.1 °F - 54.7 °F 74% 30.13 in 10.0 mi NNE 4.6 mph - N/A   Clear
10:15 PM 61.7 °F - 55.4 °F 80% 30.13 in 10.0 mi NNE 4.6 mph - N/A   Clear
10:35 PM 60.4 °F - 55.6 °F 84% 30.13 in 10.0 mi NNE 5.8 mph - N/A   Clear
10:55 PM 59.9 °F - 55.8 °F 86% 30.13 in 10.0 mi NNE 4.6 mph - N/A   Clear
11:15 PM 59.9 °F - 55.4 °F 85% 30.13 in 10.0 mi NNE 4.6 mph - N/A   Clear
11:35 PM 60.3 °F - 54.9 °F 82% 30.13 in 10.0 mi Calm Calm - N/A   Clear
11:55 PM 58.1 °F - 54.5 °F 88% 30.14 in 10.0 mi North 3.5 mph - N/A   Clear